TimeCST,TemperatureF,Dew PointF,Humidity,Sea Level PressureIn,VisibilityMPH,Wind Direction,Wind SpeedMPH,Gust SpeedMPH,PrecipitationIn,Events,Conditions,WindDirDegrees,DateUTC
12:15 AM,48.2,33.8,58,29.83,10.0,SW,8.1,-,0.00,,Clear,220,2014-01-27 06:15:00
12:35 AM,46.4,33.8,62,29.83,10.0,SW,6.9,-,0.00,,Clear,220,2014-01-27 06:35:00
12:55 AM,46.4,33.8,62,29.84,10.0,WSW,5.8,-,0.00,,Clear,250,2014-01-27 06:55:00
1:15 AM,46.4,35.6,66,29.85,10.0,SW,6.9,-,0.00,,Clear,230,2014-01-27 07:15:00
1:35 AM,44.6,35.6,71,29.85,10.0,SW,5.8,-,0.00,,Clear,230,2014-01-27 07:35:00
1:55 AM,44.6,35.6,71,29.85,10.0,SW,6.9,-,0.00,,Clear,230,2014-01-27 07:55:00
2:15 AM,44.6,35.6,71,29.85,9.0,WSW,4.6,-,0.00,,Clear,240,2014-01-27 08:15:00
2:35 AM,44.6,35.6,71,29.86,9.0,Calm,Calm,-,0.00,,Clear,0,2014-01-27 08:35:00
2:55 AM,44.6,35.6,71,29.86,10.0,West,4.6,-,0.00,,Clear,270,2014-01-27 08:55:00
3:15 AM,42.8,35.6,76,29.88,10.0,WNW,11.5,16.1,0.00,,Clear,300,2014-01-27 09:15:00
3:35 AM,44.6,37.4,76,29.91,10.0,North,24.2,31.1,0.00,,Clear,350,2014-01-27 09:35:00
3:55 AM,42.8,33.8,70,29.93,10.0,North,19.6,28.8,0.00,,Clear,10,2014-01-27 09:55:00
4:15 AM,37.4,28.4,70,29.97,10.0,NNE,20.7,28.8,0.00,,Clear,20,2014-01-27 10:15:00
4:35 AM,35.6,28.4,75,29.99,10.0,North,25.3,33.4,0.00,,Clear,10,2014-01-27 10:35:00
4:55 AM,35.6,26.6,70,30.01,10.0,North,24.2,39.1,0.00,,Clear,10,2014-01-27 10:55:00
5:15 AM,33.8,24.8,70,30.03,9.0,North,20.7,29.9,0.00,,Clear,10,2014-01-27 11:15:00
5:55 AM,32.0,23.0,69,30.06,10.0,North,17.3,32.2,0.00,,Clear,10,2014-01-27 11:55:00
6:15 AM,32.0,21.2,64,30.09,10.0,North,17.3,33.4,0.00,,Clear,10,2014-01-27 12:15:00
6:35 AM,30.2,23.0,75,30.11,10.0,NNE,18.4,26.5,0.00,,Clear,20,2014-01-27 12:35:00
6:50 AM,30.2,21.2,69,30.11,10.0,NNE,17.3,28.8,N/A,,Mostly Cloudy,20,2014-01-27 12:50:00
7:50 AM,28.4,14.0,55,30.17,10.0,NNE,17.3,28.8,N/A,,Scattered Clouds,20,2014-01-27 13:50:00
8:50 AM,28.4,5.0,37,30.21,10.0,NNE,17.3,34.5,N/A,,Scattered Clouds,20,2014-01-27 14:50:00
9:50 AM,30.2,1.4,29,30.23,10.0,NNE,20.7,32.2,N/A,,Scattered Clouds,30,2014-01-27 15:50:00
10:50 AM,30.2,3.2,32,30.26,10.0,NNE,13.8,25.3,N/A,,Scattered Clouds,20,2014-01-27 16:50:00
11:50 AM,32.0,5.0,32,30.24,10.0,North,13.8,20.7,N/A,,Scattered Clouds,360,2014-01-27 17:50:00
12:50 PM,30.2,5.0,34,30.24,10.0,NE,11.5,23.0,N/A,,Mostly Cloudy,40,2014-01-27 18:50:00
1:50 PM,28.4,3.2,34,30.26,10.0,NNE,12.7,25.3,N/A,,Mostly Cloudy,20,2014-01-27 19:50:00
2:50 PM,28.4,3.2,34,30.27,10.0,North,17.3,24.2,N/A,,Mostly Cloudy,10,2014-01-27 20:50:00
3:50 PM,26.6,3.2,37,30.28,10.0,NNE,16.1,21.9,N/A,,Mostly Cloudy,20,2014-01-27 21:50:00
4:50 PM,23.0,1.4,39,30.31,10.0,NNE,13.8,-,N/A,,Mostly Cloudy,30,2014-01-27 22:50:00
5:50 PM,23.0,1.4,39,30.34,10.0,NNE,13.8,20.7,N/A,,Mostly Cloudy,20,2014-01-27 23:50:00
6:50 PM,21.2,1.4,42,30.36,10.0,North,16.1,23.0,N/A,,Mostly Cloudy,10,2014-01-28 00:50:00
7:50 PM,21.2,-0.4,39,30.37,10.0,North,18.4,23.0,N/A,,Mostly Cloudy,10,2014-01-28 01:50:00
8:55 PM,19.4,1.4,46,30.36,10.0,NNE,12.7,19.6,0.00,,Clear,20,2014-01-28 02:55:00
9:15 PM,19.4,1.4,46,30.37,9.0,NNE,15.0,-,0.00,,Partly Cloudy,20,2014-01-28 03:15:00
9:35 PM,19.4,1.4,46,30.37,10.0,NNE,13.8,20.7,0.00,,Mostly Cloudy,30,2014-01-28 03:35:00
9:55 PM,19.4,1.4,46,30.37,10.0,NE,10.4,-,0.00,,Scattered Clouds,40,2014-01-28 03:55:00
10:15 PM,19.4,1.4,46,30.37,10.0,NNE,11.5,18.4,0.00,,Mostly Cloudy,30,2014-01-28 04:15:00
10:35 PM,21.2,3.2,46,30.37,10.0,NNE,12.7,16.1,0.00,,Overcast,30,2014-01-28 04:35:00
10:55 PM,21.2,3.2,46,30.39,9.0,NE,13.8,17.3,0.00,,Overcast,40,2014-01-28 04:55:00
11:15 PM,21.2,3.2,46,30.38,9.0,NNE,12.7,16.1,0.00,,Overcast,20,2014-01-28 05:15:00
11:35 PM,19.4,1.4,46,30.38,10.0,NNE,16.1,23.0,0.00,,Overcast,20,2014-01-28 05:35:00
11:55 PM,19.4,1.4,46,30.38,10.0,NE,16.1,24.2,0.00,,Overcast,40,2014-01-28 05:55:00